Home   Weather   Lille   Past weeks
Flag for France

Past Weather in Lille, Hauts-de-France, France — Yesterday and Last 2 Weeks

Now
54 °F

Clear.


Feels Like: 53 °F
Forecast: 63 / 48 °F
Wind: 5 mph from East

Location: Lille Airport

Current Time: Oct 22, 2019 at 10:34:25 pm

Latest Report: Oct 22, 2019 at 10:00 pm


Visibility: 10 mi

Pressure: 30.18 "Hg

Humidity: 88%

Dew Point: 50 °F

Location of LilleLocation

Past Weather in Lille — Graph

°F

Lille Temperature Yesterday

Maximum temperature yesterday: 57 °F (at 4:00 pm)
Minimum temperature yesterday: 52 °F (at 12:00 am)
Average temperature yesterday: 54 °F

High & Low Weather Summary for the Past Weeks

 TemperatureHumidityPressure
High73 °F (Oct 13, 2:00 pm)100% (Oct 8, 3:00 am)30.27 "Hg (Oct 8, 3:00 am)
Low46 °F (Oct 10, 7:00 am)55% (Oct 18, 4:30 pm)29.53 "Hg (Oct 18, 9:00 am)
Average56 °F85%29.81 "Hg
* Reported Oct 7 9:00 pm — Oct 22 9:30 pm, Lille. Weather by CustomWeather, © 2019

Note: Actual official high and low records may vary slightly from our data, if they occured in-between our weather recording intervals... More about our weather records

Advertising

Lille Weather History for the Previous 24 Hours

Scroll right to see more
 ConditionsComfort  
Time TempWeatherWind HumidityBarometerVisibility
9:30 pm
Tue, Oct 22
54 °FClear.No wind88%30.21 "Hg10 mi
9:00 pm54 °FClear.3 mph88%30.18 "Hg10 mi
8:30 pm52 °FClear.2 mph94%30.21 "Hg10 mi
8:00 pm54 °FClear.3 mph88%30.21 "Hg10 mi
7:30 pm54 °FClear.2 mph88%30.21 "Hg10 mi
7:00 pm54 °FClear.2 mph82%30.21 "Hg10 mi
6:30 pm55 °FSunny.3 mph82%30.21 "Hg10 mi
6:00 pm57 °FSunny.2 mph77%30.21 "Hg10 mi
5:30 pm59 °FSunny.2 mph72%30.21 "Hg10 mi
5:00 pm59 °FSunny.3 mph72%30.21 "Hg10 mi
4:30 pm59 °FSunny.3 mph72%30.21 "Hg10 mi
4:00 pm59 °FPartly sunny.3 mph72%30.24 "HgN/A
3:30 pm59 °FScattered clouds.2 mph72%30.24 "HgN/A
3:00 pm57 °FScattered clouds.No wind72%30.24 "HgN/A
2:30 pm57 °FBroken clouds.1 mph77%30.24 "HgN/A
2:00 pm57 °FBroken clouds.2 mph77%30.24 "HgN/A
1:30 pm57 °FPartly sunny.3 mph72%30.27 "HgN/A
1:00 pm57 °FMostly cloudy.2 mph77%30.27 "HgN/A
12:30 pm57 °FMostly cloudy.3 mph72%30.27 "HgN/A
12:00 pm59 °FPartly sunny.3 mph72%30.24 "HgN/A
11:30 am55 °FScattered clouds.2 mph82%30.24 "HgN/A
11:00 am54 °FMostly cloudy.2 mph94%30.27 "HgN/A
10:30 am54 °FMostly cloudy.2 mph88%30.24 "HgN/A
10:00 am54 °FOvercast.3 mph88%30.24 "HgN/A
9:30 am52 °FBroken clouds.2 mph94%30.24 "HgN/A
9:00 am52 °FScattered clouds.3 mph94%30.24 "HgN/A
8:30 am52 °FPartly sunny.3 mph94%30.21 "HgN/A
8:00 am54 °FLow clouds.7 mph88%30.21 "HgN/A
7:30 am54 °FMostly cloudy.5 mph88%30.21 "HgN/A
7:00 am54 °FLow clouds.7 mph88%30.18 "HgN/A
6:30 am54 °FLow clouds.7 mph94%30.18 "HgN/A
6:00 am54 °FLow clouds.7 mph94%30.18 "HgN/A
5:30 am54 °FLow clouds.7 mph94%30.18 "HgN/A
5:00 am54 °FLow clouds.7 mph94%30.18 "HgN/A
4:30 am54 °FMostly cloudy.7 mph94%30.18 "HgN/A
4:00 am54 °FMostly cloudy.8 mph94%30.18 "HgN/A
3:30 am54 °FMostly cloudy.8 mph94%30.18 "HgN/A
3:00 am54 °FMostly cloudy.9 mph94%30.15 "HgN/A
2:30 am54 °FLow clouds.8 mph100%30.15 "HgN/A
2:00 am54 °FLow clouds.9 mph100%30.15 "HgN/A
1:30 am54 °FLow clouds.10 mph100%30.15 "HgN/A
1:00 am55 °FLow clouds.10 mph94%30.12 "Hg4 mi
12:30 am55 °FLow clouds.12 mph94%30.12 "HgN/A
12:00 am55 °FLow clouds.10 mph94%30.12 "HgN/A
11:30 pm
Mon, Oct 21
55 °FLow clouds.7 mph94%30.12 "Hg5 mi
11:00 pm55 °FMostly cloudy.8 mph94%30.12 "HgN/A
10:30 pm55 °FMostly cloudy.8 mph94%30.09 "HgN/A
10:00 pm55 °FPartly cloudy.7 mph94%30.09 "HgN/A
Weather by CustomWeather, © 2019

See weather overview